TimeCST,TemperatureF,Dew PointF,Humidity,Sea Level PressureIn,VisibilityMPH,Wind Direction,Wind SpeedMPH,Gust SpeedMPH,PrecipitationIn,Events,Conditions,WindDirDegrees,DateUTC
12:15 AM,10.4,8.6,92,29.64,6.0,NNW,16.1,-,N/A,Rain,Freezing Rain,340,2013-02-05 06:15:00
12:35 AM,10.4,8.6,92,29.64,9.0,NNW,17.3,20.7,N/A,Rain,Freezing Rain,340,2013-02-05 06:35:00
12:55 AM,10.4,8.6,92,29.65,7.0,North,16.1,20.7,N/A,Rain,Freezing Rain,350,2013-02-05 06:55:00
1:15 AM,10.4,6.8,85,29.66,7.0,North,15.0,20.7,N/A,Rain,Freezing Rain,350,2013-02-05 07:15:00
1:35 AM,10.4,6.8,85,29.68,7.0,North,16.1,19.6,N/A,Rain,Freezing Rain,360,2013-02-05 07:35:00
1:55 AM,8.6,5.0,85,29.70,10.0,North,13.8,-,N/A,Rain,Freezing Rain,350,2013-02-05 07:55:00
2:15 AM,8.6,5.0,85,29.72,5.0,NNW,12.7,-,N/A,Rain,Freezing Rain,340,2013-02-05 08:15:00
2:35 AM,8.6,5.0,85,29.73,8.0,NNW,13.8,-,N/A,Rain,Freezing Rain,340,2013-02-05 08:35:00
2:55 AM,8.6,5.0,85,29.76,7.0,NNW,16.1,-,N/A,Rain,Freezing Rain,340,2013-02-05 08:55:00
3:15 AM,6.8,3.2,85,29.77,5.0,NNW,13.8,18.4,N/A,Rain,Freezing Rain,340,2013-02-05 09:15:00
3:35 AM,6.8,3.2,85,29.78,5.0,NNW,13.8,-,N/A,Rain,Freezing Rain,340,2013-02-05 09:35:00
3:55 AM,5.0,1.4,85,29.80,6.0,North,13.8,-,N/A,Rain,Freezing Rain,350,2013-02-05 09:55:00
4:15 AM,5.0,-0.4,78,29.81,8.0,North,15.0,-,N/A,Rain,Freezing Rain,350,2013-02-05 10:15:00
4:35 AM,3.2,-0.4,85,29.83,5.0,North,17.3,-,N/A,Rain,Freezing Rain,350,2013-02-05 10:35:00
4:55 AM,1.4,-0.4,92,29.84,5.0,NNW,16.1,20.7,N/A,Rain,Freezing Rain,340,2013-02-05 10:55:00
5:15 AM,1.4,-2.2,85,29.86,5.0,NNW,16.1,-,N/A,Rain,Freezing Rain,340,2013-02-05 11:15:00
5:35 AM,-0.4,-2.2,92,29.87,5.0,NNW,16.1,-,N/A,Rain,Freezing Rain,340,2013-02-05 11:35:00
5:55 AM,-0.4,-4.0,85,29.88,5.0,NNW,15.0,-,N/A,Rain,Freezing Rain,340,2013-02-05 11:55:00
6:15 AM,-0.4,-4.0,85,29.89,6.0,NNW,13.8,-,N/A,Rain,Freezing Rain,340,2013-02-05 12:15:00
6:35 AM,-0.4,-4.0,85,29.91,8.0,NNW,15.0,-,N/A,Rain,Freezing Rain,340,2013-02-05 12:35:00
6:55 AM,-0.4,-4.0,85,29.92,10.0,NNW,15.0,-,N/A,Rain,Freezing Rain,330,2013-02-05 12:55:00
7:15 AM,-0.4,-4.0,85,29.93,10.0,NNW,13.8,-,N/A,Rain,Freezing Rain,330,2013-02-05 13:15:00
7:35 AM,-0.4,-5.8,78,29.95,10.0,NNW,12.7,-,N/A,Rain,Freezing Rain,330,2013-02-05 13:35:00
7:55 AM,-0.4,-7.6,72,29.96,10.0,NNW,11.5,-,N/A,Rain,Freezing Rain,330,2013-02-05 13:55:00
8:15 AM,-2.2,-7.6,78,29.97,10.0,NNW,13.8,-,N/A,Rain,Freezing Rain,330,2013-02-05 14:15:00
8:35 AM,-2.2,-7.6,78,29.98,2.5,NNW,12.7,-,N/A,Rain,Freezing Rain,340,2013-02-05 14:35:00
8:55 AM,-2.2,-7.6,78,29.99,10.0,North,13.8,-,N/A,Rain,Freezing Rain,350,2013-02-05 14:55:00
9:15 AM,-2.2,-7.6,78,30.00,10.0,North,15.0,-,N/A,Rain,Freezing Rain,350,2013-02-05 15:15:00
9:35 AM,-0.4,-7.6,72,30.01,10.0,North,13.8,17.3,N/A,Rain,Freezing Rain,350,2013-02-05 15:35:00
9:55 AM,-0.4,-7.6,72,30.02,9.0,NNW,11.5,-,N/A,Rain,Freezing Rain,340,2013-02-05 15:55:00
10:15 AM,-0.4,-5.8,78,30.03,7.0,North,11.5,-,N/A,Rain,Freezing Rain,350,2013-02-05 16:15:00
10:35 AM,-0.4,-5.8,78,30.04,8.0,NNW,12.7,-,N/A,Rain,Freezing Rain,330,2013-02-05 16:35:00
10:55 AM,-0.4,-5.8,78,30.05,10.0,NNW,13.8,-,N/A,Rain,Freezing Rain,340,2013-02-05 16:55:00
11:15 AM,-0.4,-5.8,78,30.06,10.0,NNW,10.4,-,N/A,Rain,Freezing Rain,340,2013-02-05 17:15:00
11:35 AM,1.4,-4.0,78,30.06,10.0,NNW,10.4,-,N/A,,Partly Cloudy,340,2013-02-05 17:35:00
11:55 AM,1.4,-4.0,78,30.06,10.0,NNW,9.2,-,N/A,,Partly Cloudy,340,2013-02-05 17:55:00
12:15 PM,1.4,-5.8,72,30.06,10.0,NNW,12.7,-,N/A,,Scattered Clouds,340,2013-02-05 18:15:00
12:35 PM,1.4,-5.8,72,30.06,10.0,NNW,11.5,-,N/A,,Scattered Clouds,340,2013-02-05 18:35:00
12:55 PM,1.4,-5.8,72,30.05,10.0,NNW,10.4,-,N/A,,Scattered Clouds,340,2013-02-05 18:55:00
1:15 PM,1.4,-5.8,72,30.05,10.0,NNW,8.1,-,N/A,,Partly Cloudy,340,2013-02-05 19:15:00
1:35 PM,1.4,-5.8,72,30.05,10.0,NNW,8.1,-,N/A,,Clear,330,2013-02-05 19:35:00
1:55 PM,1.4,-5.8,72,30.05,10.0,NNW,6.9,-,N/A,,Scattered Clouds,340,2013-02-05 19:55:00
2:15 PM,1.4,-4.0,78,30.06,10.0,NNW,8.1,-,N/A,,Overcast,330,2013-02-05 20:15:00
2:35 PM,1.4,-4.0,78,30.05,10.0,NNW,6.9,-,N/A,,Overcast,330,2013-02-05 20:35:00
2:55 PM,3.2,-4.0,72,30.05,10.0,WNW,3.5,-,N/A,,Overcast,300,2013-02-05 20:55:00
3:15 PM,3.2,-5.8,66,30.06,10.0,North,5.8,-,N/A,,Overcast,350,2013-02-05 21:15:00
3:35 PM,3.2,-5.8,66,30.07,10.0,NNW,5.8,-,N/A,,Overcast,340,2013-02-05 21:35:00
3:55 PM,3.2,-4.0,72,30.06,10.0,NW,3.5,-,N/A,,Overcast,310,2013-02-05 21:55:00
4:15 PM,3.2,-5.8,66,30.06,10.0,NNE,3.5,-,N/A,,Overcast,20,2013-02-05 22:15:00
4:35 PM,3.2,-5.8,66,30.05,10.0,Calm,Calm,-,N/A,,Scattered Clouds,0,2013-02-05 22:35:00
4:55 PM,1.4,-5.8,72,30.05,9.0,NE,3.5,-,N/A,Snow,Light Snow,40,2013-02-05 22:55:00
5:15 PM,1.4,-5.8,72,30.04,10.0,Calm,Calm,-,N/A,,Mostly Cloudy,0,2013-02-05 23:15:00
5:35 PM,3.2,-4.0,72,30.05,10.0,Calm,Calm,-,N/A,,Overcast,0,2013-02-05 23:35:00
5:55 PM,3.2,-4.0,72,30.04,10.0,Calm,Calm,-,N/A,,Overcast,0,2013-02-05 23:55:00
6:15 PM,3.2,-4.0,72,30.04,10.0,Calm,Calm,-,N/A,,Overcast,0,2013-02-06 00:15:00
6:35 PM,3.2,-4.0,72,30.04,10.0,SE,3.5,-,N/A,,Overcast,130,2013-02-06 00:35:00
6:55 PM,3.2,-4.0,72,30.03,10.0,ESE,4.6,-,N/A,,Overcast,110,2013-02-06 00:55:00
7:15 PM,3.2,-4.0,72,30.03,10.0,ESE,3.5,-,N/A,Snow,Light Snow,120,2013-02-06 01:15:00
7:35 PM,3.2,-4.0,72,30.02,10.0,South,5.8,-,N/A,,Overcast,170,2013-02-06 01:35:00
7:55 PM,3.2,-4.0,72,30.02,10.0,South,6.9,-,N/A,,Overcast,170,2013-02-06 01:55:00
8:15 PM,3.2,-2.2,78,30.02,10.0,South,8.1,-,N/A,,Overcast,180,2013-02-06 02:15:00
8:35 PM,5.0,-2.2,72,30.02,10.0,South,11.5,-,N/A,,Overcast,180,2013-02-06 02:35:00
9:15 PM,5.0,-2.2,72,30.02,10.0,South,9.2,-,N/A,,Mostly Cloudy,180,2013-02-06 03:15:00
9:35 PM,5.0,-2.2,72,30.01,10.0,South,8.1,-,N/A,,Overcast,180,2013-02-06 03:35:00
9:55 PM,5.0,-2.2,72,30.01,10.0,South,8.1,-,N/A,Snow,Light Snow,180,2013-02-06 03:55:00
10:15 PM,5.0,-0.4,78,30.00,6.0,South,6.9,-,N/A,Snow,Light Snow,170,2013-02-06 04:15:00
10:35 PM,5.0,-0.4,78,29.99,5.0,South,8.1,-,N/A,Snow,Light Snow,170,2013-02-06 04:35:00
10:55 PM,5.0,-0.4,78,29.99,4.0,South,9.2,-,N/A,,Haze,180,2013-02-06 04:55:00
11:15 PM,6.8,-0.4,72,29.99,10.0,South,10.4,-,N/A,,Overcast,180,2013-02-06 05:15:00
11:35 PM,5.0,-0.4,78,29.98,10.0,South,12.7,-,N/A,,Overcast,180,2013-02-06 05:35:00
11:55 PM,6.8,-0.4,72,29.98,9.0,SSE,8.1,-,N/A,,Overcast,150,2013-02-06 05:55:00